TimeEST,TemperatureF,Dew PointF,Humidity,Sea Level PressureIn,VisibilityMPH,Wind Direction,Wind SpeedMPH,Gust SpeedMPH,PrecipitationIn,Events,Conditions,WindDirDegrees,DateUTC
12:15 AM,33.8,33.8,100,30.27,10.0,Calm,Calm,-,N/A,,Clear,0,2013-01-07 05:15:00
12:35 AM,34.7,33.6,96,30.28,10.0,Calm,Calm,-,N/A,,Clear,0,2013-01-07 05:35:00
12:55 AM,33.3,32.0,95,30.28,10.0,Calm,Calm,-,N/A,,Clear,0,2013-01-07 05:55:00
1:15 AM,32.0,31.3,97,30.27,10.0,Calm,Calm,-,N/A,,Clear,0,2013-01-07 06:15:00
1:35 AM,32.7,32.0,97,30.28,10.0,Calm,Calm,-,N/A,,Clear,0,2013-01-07 06:35:00
1:55 AM,32.2,32.0,99,30.27,10.0,Calm,Calm,-,N/A,,Clear,0,2013-01-07 06:55:00
2:15 AM,32.0,31.1,96,30.28,10.0,NW,3.5,-,N/A,,Clear,310,2013-01-07 07:15:00
2:35 AM,33.1,32.4,97,30.28,10.0,Calm,Calm,-,N/A,,Clear,0,2013-01-07 07:35:00
2:55 AM,31.8,30.2,94,30.29,10.0,Calm,Calm,-,N/A,,Clear,0,2013-01-07 07:55:00
3:15 AM,31.3,29.8,94,30.29,10.0,Calm,Calm,-,N/A,,Clear,0,2013-01-07 08:15:00
3:35 AM,31.6,30.7,96,30.29,10.0,Calm,Calm,-,N/A,,Clear,0,2013-01-07 08:35:00
3:55 AM,32.0,30.7,95,30.28,10.0,Calm,Calm,-,N/A,,Clear,0,2013-01-07 08:55:00
4:15 AM,30.9,29.3,94,30.28,10.0,Calm,Calm,-,N/A,,Clear,0,2013-01-07 09:15:00
4:35 AM,31.3,30.6,97,30.27,10.0,Calm,Calm,-,N/A,,Clear,0,2013-01-07 09:35:00
4:55 AM,30.9,29.7,95,30.27,10.0,Calm,Calm,-,N/A,,Clear,0,2013-01-07 09:55:00
5:15 AM,29.8,28.4,94,30.27,10.0,Calm,Calm,-,N/A,,Clear,0,2013-01-07 10:15:00
5:55 AM,28.4,28.2,99,30.28,4.0,Calm,Calm,-,N/A,,Clear,0,2013-01-07 10:55:00
6:15 AM,28.2,27.9,99,30.29,0.5,Calm,Calm,-,N/A,Fog,Light Freezing Fog,0,2013-01-07 11:15:00
6:35 AM,28.4,28.2,99,30.29,1.0,Calm,Calm,-,N/A,,Mostly Cloudy,0,2013-01-07 11:35:00
6:55 AM,29.1,28.9,99,30.30,10.0,Calm,Calm,-,N/A,,Scattered Clouds,0,2013-01-07 11:55:00
7:15 AM,26.4,25.3,96,30.30,10.0,Calm,Calm,-,N/A,,Clear,0,2013-01-07 12:15:00
7:35 AM,28.4,27.1,95,30.31,10.0,Calm,Calm,-,N/A,,Clear,0,2013-01-07 12:35:00
7:55 AM,27.1,26.4,97,30.32,7.0,Calm,Calm,-,N/A,,Clear,0,2013-01-07 12:55:00
8:15 AM,28.2,27.3,96,30.33,5.0,Calm,Calm,-,N/A,,Clear,0,2013-01-07 13:15:00
8:35 AM,28.8,27.7,96,30.34,10.0,Calm,Calm,-,N/A,,Clear,0,2013-01-07 13:35:00
8:55 AM,31.6,30.9,97,30.34,7.0,Calm,Calm,-,N/A,,Clear,0,2013-01-07 13:55:00
9:15 AM,37.2,33.3,86,30.35,10.0,Calm,Calm,-,N/A,,Clear,0,2013-01-07 14:15:00
9:35 AM,39.6,32.9,77,30.36,10.0,NNE,4.6,-,N/A,,Clear,30,2013-01-07 14:35:00
9:55 AM,41.0,32.0,70,30.37,10.0,NE,8.1,-,N/A,,Clear,40,2013-01-07 14:55:00
10:15 AM,42.3,32.0,67,30.37,10.0,NE,5.8,-,N/A,,Clear,50,2013-01-07 15:15:00
10:35 AM,43.9,32.0,63,30.37,10.0,ENE,6.9,-,N/A,,Clear,60,2013-01-07 15:35:00
10:55 AM,45.9,32.4,59,30.36,10.0,ENE,6.9,-,N/A,,Clear,70,2013-01-07 15:55:00
11:15 AM,47.1,32.2,56,30.35,10.0,East,4.6,-,N/A,,Clear,100,2013-01-07 16:15:00
11:35 AM,48.9,32.5,53,30.35,10.0,ENE,4.6,-,N/A,,Clear,70,2013-01-07 16:35:00
11:55 AM,50.9,32.7,50,30.34,10.0,East,8.1,-,N/A,,Clear,80,2013-01-07 16:55:00
12:15 PM,51.8,32.0,47,30.33,10.0,ESE,3.5,-,N/A,,Clear,110,2013-01-07 17:15:00
12:35 PM,52.5,32.2,46,30.32,10.0,ENE,4.6,-,N/A,,Clear,70,2013-01-07 17:35:00
12:55 PM,53.1,32.0,45,30.31,10.0,ENE,5.8,-,N/A,,Clear,70,2013-01-07 17:55:00
1:35 PM,54.3,32.4,43,30.29,10.0,SSE,6.9,-,N/A,,Clear,160,2013-01-07 18:35:00
1:55 PM,55.8,32.5,41,30.29,10.0,East,4.6,-,N/A,,Clear,90,2013-01-07 18:55:00
2:15 PM,56.3,31.1,38,30.29,10.0,SE,6.9,-,N/A,,Clear,130,2013-01-07 19:15:00
2:35 PM,57.2,30.2,36,30.29,10.0,SSE,5.8,-,N/A,,Clear,160,2013-01-07 19:35:00
2:55 PM,56.7,30.9,38,30.29,10.0,SSE,10.4,16.1,N/A,,Clear,150,2013-01-07 19:55:00
3:15 PM,56.8,30.9,37,30.29,10.0,ESE,5.8,-,N/A,,Clear,120,2013-01-07 20:15:00
3:35 PM,57.6,30.7,36,30.29,10.0,ESE,3.5,-,N/A,,Clear,120,2013-01-07 20:35:00
3:55 PM,57.6,29.1,34,30.29,10.0,ESE,5.8,-,N/A,,Clear,120,2013-01-07 20:55:00
4:15 PM,57.2,28.4,33,30.29,10.0,ESE,5.8,-,N/A,,Clear,120,2013-01-07 21:15:00
4:35 PM,56.7,28.8,34,30.29,10.0,SE,5.8,-,N/A,,Clear,130,2013-01-07 21:35:00
4:55 PM,55.9,30.4,38,30.29,10.0,East,6.9,-,N/A,,Clear,80,2013-01-07 21:55:00
5:15 PM,55.2,30.0,38,30.29,10.0,ESE,3.5,-,N/A,,Clear,110,2013-01-07 22:15:00
5:35 PM,54.0,30.9,41,30.29,10.0,East,4.6,-,N/A,,Clear,100,2013-01-07 22:35:00
5:55 PM,52.3,30.7,44,30.29,10.0,ESE,4.6,-,N/A,,Clear,110,2013-01-07 22:55:00
6:15 PM,51.1,30.9,46,30.30,10.0,ESE,3.5,-,N/A,,Clear,110,2013-01-07 23:15:00
6:35 PM,48.2,31.3,52,30.31,10.0,Calm,Calm,-,N/A,,Clear,0,2013-01-07 23:35:00
6:55 PM,44.2,32.0,62,30.31,10.0,Calm,Calm,-,N/A,,Clear,0,2013-01-07 23:55:00
7:15 PM,41.5,32.9,71,30.31,10.0,Calm,Calm,-,N/A,,Clear,0,2013-01-08 00:15:00
7:35 PM,39.7,32.0,74,30.31,10.0,Calm,Calm,-,N/A,,Clear,0,2013-01-08 00:35:00
7:55 PM,38.3,32.2,79,30.31,10.0,Calm,Calm,-,N/A,,Clear,0,2013-01-08 00:55:00
8:15 PM,38.8,32.0,76,30.31,10.0,Calm,Calm,-,N/A,,Clear,0,2013-01-08 01:15:00
8:35 PM,39.2,31.8,75,30.31,10.0,Calm,Calm,-,N/A,,Clear,0,2013-01-08 01:35:00
8:55 PM,37.2,31.8,81,30.31,10.0,Calm,Calm,-,N/A,,Clear,0,2013-01-08 01:55:00
9:15 PM,36.0,31.6,84,30.31,10.0,Calm,Calm,-,N/A,,Clear,0,2013-01-08 02:15:00
9:35 PM,35.4,31.3,85,30.31,10.0,Calm,Calm,-,N/A,,Clear,0,2013-01-08 02:35:00
9:55 PM,35.4,31.3,85,30.32,10.0,Calm,Calm,-,N/A,,Clear,0,2013-01-08 02:55:00
10:15 PM,34.0,30.9,89,30.32,10.0,Calm,Calm,-,N/A,,Clear,0,2013-01-08 03:15:00
10:35 PM,34.3,31.1,88,30.31,10.0,Calm,Calm,-,N/A,,Clear,0,2013-01-08 03:35:00
10:55 PM,33.3,31.1,92,30.31,10.0,Calm,Calm,-,N/A,,Clear,0,2013-01-08 03:55:00
11:15 PM,32.5,30.7,93,30.31,10.0,Calm,Calm,-,N/A,,Scattered Clouds,0,2013-01-08 04:15:00
11:35 PM,33.4,30.9,90,30.31,10.0,Calm,Calm,-,N/A,,Scattered Clouds,0,2013-01-08 04:35:00
11:55 PM,33.3,30.0,88,30.31,10.0,Calm,Calm,-,N/A,,Scattered Clouds,0,2013-01-08 04:55:00